This is the latest recevied weather packets stored in our database for station/object N5KJT. If no packets are shown the sender has not sent any weather packets the latest 10 day(s).
| Time | Temp. | Humidity | Pressure | Rain* | Wind** | Luminosity | Snow |
|---|---|---|---|---|---|---|---|
| 1787670017 | 25° C | 45% | 1029 hPa | 0 mm | - | 447 W/m² | - |
| 1787669717 | 24.44° C | 45% | 1029.1 hPa | 0 mm | - | 465 W/m² | - |
| 1787669417 | 24.44° C | 46% | 1029.1 hPa | 0 mm | - | 485 W/m² | - |
| 1787669117 | 23.89° C | 46% | 1029 hPa | 0 mm | - | 484 W/m² | - |
| 1787668817 | 23.89° C | 47% | 1029 hPa | 0 mm | - | 464 W/m² | - |
| 1787668517 | 23.33° C | 47% | 1029 hPa | 0 mm | - | 441 W/m² | - |
| 1787668217 | 23.33° C | 48% | 1029 hPa | 0 mm | - | 417 W/m² | - |
| 1787667917 | 22.78° C | 49% | 1029 hPa | 0 mm | - | 394 W/m² | - |
| 1787667616 | 22.22° C | 51% | 1029.1 hPa | 0 mm | - | 368 W/m² | - |
| 1787667317 | 22.22° C | 53% | 1029.2 hPa | 0 mm | - | 340 W/m² | - |
| 1787667017 | 21.67° C | 55% | 1029.2 hPa | 0 mm | - | 311 W/m² | - |
| 1787666717 | 20.56° C | 57% | 1029.1 hPa | 0 mm | - | 282 W/m² | - |
| 1787666417 | 20.56° C | 58% | 1029.2 hPa | 0 mm | - | 251 W/m² | - |
| 1787666117 | 19.44° C | 61% | 1029.1 hPa | 0 mm | - | 205 W/m² | - |
| 1787665817 | 18.89° C | 62% | 1029.2 hPa | 0 mm | - | 164 W/m² | - |
| 1787665517 | 18.33° C | 63% | 1029.2 hPa | 0 mm | - | 145 W/m² | - |
| 1787665216 | 18.33° C | 65% | 1029.2 hPa | 0 mm | - | 134 W/m² | - |
| 1787664917 | 17.78° C | 65% | 1029.4 hPa | 0 mm | - | 126 W/m² | - |
| 1787664616 | 17.22° C | 66% | 1029.3 hPa | 0 mm | - | 119 W/m² | - |
| 1787664317 | 16.67° C | 68% | 1029.4 hPa | 0 mm | - | 110 W/m² | - |
| 1787664017 | 16.67° C | 69% | 1029.3 hPa | 0 mm | - | 95 W/m² | - |
| 1787663716 | 16.11° C | 69% | 1029.1 hPa | 0 mm | - | 79 W/m² | - |
| 1787663416 | 16.11° C | 69% | 1029.1 hPa | 0 mm | - | 64 W/m² | - |
| 1787663116 | 16.11° C | 69% | 1029 hPa | 0 mm | - | 47 W/m² | - |
| 1787662816 | 16.11° C | 69% | 1029 hPa | 0 mm | - | 26 W/m² | - |
* Rain latest hour (hover to see other rain measurements)
** Current wind speed in m/s (hover to see current wind gust speed)